Location: Roussillon
(43.9008°N, 5.2947°E)
Time: 22:06:52
(UTC+00:00)

Cosmos 1869 - Pass Details

Date: 07 June 2020
Orbit: 519 x 563 km, 82.5° (Epoch: 07 July)

Event Time Altitude Azimuth Distance (km) Brightness Sun altitude
Rises 01:25:14 0° 354° (N) 2,659 7.8 -18.9°
Reaches altitude 10° 01:27:24 10° 358° (N) 1,764 6.8 -18.7°
Maximum altitude 01:31:14 62° 80° (E) 588 3.5 -18.4°
Enters shadow 01:33:02 29° 152° (SSE) 981 4.3 -18.3°
